TimeEDT,TemperatureF,Dew PointF,Humidity,Sea Level PressureIn,VisibilityMPH,Wind Direction,Wind SpeedMPH,Gust SpeedMPH,PrecipitationIn,Events,Conditions,WindDirDegrees,DateUTC
12:15 AM,62.6,57.2,82,29.84,10.0,Calm,Calm,-,N/A,,Partly Cloudy,0,2013-08-03 04:15:00
12:35 AM,60.8,55.4,82,29.84,10.0,SSW,3.5,-,N/A,,Scattered Clouds,200,2013-08-03 04:35:00
12:55 AM,64.4,57.2,77,29.85,10.0,SSW,5.8,-,N/A,,Overcast,210,2013-08-03 04:55:00
1:35 AM,64.4,55.4,73,29.84,10.0,SW,4.6,-,N/A,,Overcast,220,2013-08-03 05:35:00
1:55 AM,62.6,55.4,77,29.83,10.0,SSW,4.6,-,N/A,,Mostly Cloudy,200,2013-08-03 05:55:00
2:15 AM,62.6,55.4,77,29.82,10.0,SSW,3.5,-,N/A,,Partly Cloudy,200,2013-08-03 06:15:00
2:35 AM,60.8,55.4,82,29.81,10.0,Calm,Calm,-,N/A,,Clear,0,2013-08-03 06:35:00
2:55 AM,60.8,55.4,82,29.81,10.0,Calm,Calm,-,N/A,,Mostly Cloudy,0,2013-08-03 06:55:00
3:15 AM,59.0,53.6,82,29.80,10.0,Calm,Calm,-,N/A,,Scattered Clouds,0,2013-08-03 07:15:00
3:35 AM,57.2,53.6,88,29.79,10.0,Calm,Calm,-,N/A,,Clear,0,2013-08-03 07:35:00
3:56 AM,57.2,53.6,88,29.79,9.0,Calm,Calm,-,N/A,,Clear,0,2013-08-03 07:56:00
4:15 AM,55.4,51.8,88,29.78,10.0,Calm,Calm,-,N/A,,Clear,0,2013-08-03 08:15:00
4:35 AM,55.4,51.8,88,29.79,10.0,WSW,3.5,-,N/A,,Clear,240,2013-08-03 08:35:00
4:55 AM,55.4,51.8,88,29.79,10.0,Calm,Calm,-,N/A,,Clear,0,2013-08-03 08:55:00
5:15 AM,57.2,53.6,88,29.79,10.0,WNW,4.6,-,N/A,,Clear,300,2013-08-03 09:15:00
5:35 AM,55.4,51.8,88,29.79,10.0,Calm,Calm,-,N/A,,Clear,0,2013-08-03 09:35:00
5:55 AM,57.2,53.6,88,29.79,10.0,SSE,4.6,-,N/A,,Clear,150,2013-08-03 09:55:00
6:15 AM,60.8,53.6,77,29.80,10.0,South,5.8,-,N/A,,Mostly Cloudy,190,2013-08-03 10:15:00
6:35 AM,60.8,53.6,77,29.80,10.0,SSW,4.6,-,N/A,,Overcast,210,2013-08-03 10:35:00
6:55 AM,62.6,55.4,77,29.81,10.0,SW,6.9,-,N/A,,Overcast,220,2013-08-03 10:55:00
7:15 AM,62.6,55.4,77,29.81,10.0,Calm,Calm,-,N/A,,Overcast,0,2013-08-03 11:15:00
7:35 AM,62.6,55.4,77,29.81,10.0,Calm,Calm,-,N/A,,Overcast,0,2013-08-03 11:35:00
7:55 AM,62.6,57.2,82,29.82,10.0,WSW,5.8,-,N/A,,Overcast,240,2013-08-03 11:55:00
8:15 AM,62.6,55.4,77,29.81,10.0,SW,3.5,-,N/A,,Overcast,230,2013-08-03 12:15:00
8:35 AM,64.4,57.2,77,29.81,10.0,SW,4.6,-,N/A,,Overcast,220,2013-08-03 12:35:00
8:55 AM,64.4,55.4,73,29.80,10.0,Calm,Calm,-,N/A,,Overcast,0,2013-08-03 12:55:00
9:15 AM,66.2,57.2,73,29.81,10.0,WNW,4.6,-,N/A,,Overcast,300,2013-08-03 13:15:00
9:35 AM,66.2,55.4,68,29.80,10.0,WNW,5.8,-,N/A,,Overcast,290,2013-08-03 13:35:00
9:55 AM,69.8,57.2,64,29.79,10.0,SW,5.8,-,N/A,,Mostly Cloudy,230,2013-08-03 13:55:00
10:15 AM,69.8,57.2,64,29.79,10.0,WSW,6.9,-,N/A,,Partly Cloudy,240,2013-08-03 14:15:00
10:35 AM,71.6,57.2,60,29.79,10.0,SW,11.5,-,N/A,,Partly Cloudy,230,2013-08-03 14:35:00
10:55 AM,73.4,57.2,57,29.79,10.0,WSW,10.4,17.3,N/A,,Partly Cloudy,240,2013-08-03 14:55:00
11:15 AM,75.2,57.2,53,29.78,10.0,WSW,12.7,18.4,N/A,,Partly Cloudy,250,2013-08-03 15:15:00
11:35 AM,73.4,55.4,53,29.78,10.0,West,12.7,19.6,N/A,,Partly Cloudy,260,2013-08-03 15:35:00
11:55 AM,75.2,57.2,53,29.78,10.0,SW,13.8,20.7,N/A,,Clear,230,2013-08-03 15:55:00
12:15 PM,75.2,57.2,53,29.77,10.0,West,9.2,16.1,N/A,,Clear,260,2013-08-03 16:15:00
12:35 PM,75.2,55.4,50,29.77,10.0,West,13.8,19.6,N/A,,Clear,260,2013-08-03 16:35:00
12:55 PM,75.2,53.6,47,29.77,10.0,West,9.2,24.2,N/A,,Clear,270,2013-08-03 16:55:00
1:15 PM,77.0,55.4,47,29.77,10.0,West,12.7,20.7,N/A,,Partly Cloudy,260,2013-08-03 17:15:00
1:35 PM,78.8,53.6,42,29.77,10.0,West,13.8,25.3,N/A,,Scattered Clouds,280,2013-08-03 17:35:00
1:55 PM,78.8,53.6,42,29.77,10.0,West,11.5,20.7,N/A,,Mostly Cloudy,270,2013-08-03 17:55:00
2:15 PM,78.8,53.6,42,29.77,10.0,West,13.8,18.4,N/A,,Mostly Cloudy,270,2013-08-03 18:15:00
2:35 PM,77.0,51.8,41,29.77,10.0,West,17.3,20.7,N/A,,Clear,260,2013-08-03 18:35:00
2:55 PM,78.8,51.8,39,29.76,10.0,West,15.0,20.7,N/A,,Partly Cloudy,260,2013-08-03 18:55:00
3:15 PM,78.8,53.6,42,29.76,10.0,West,12.7,18.4,N/A,,Partly Cloudy,260,2013-08-03 19:15:00
3:35 PM,78.8,51.8,39,29.76,10.0,West,12.7,-,N/A,,Partly Cloudy,270,2013-08-03 19:35:00
3:55 PM,78.8,53.6,42,29.76,10.0,WSW,8.1,-,N/A,,Partly Cloudy,250,2013-08-03 19:55:00
4:16 PM,78.8,53.6,42,29.76,10.0,WSW,12.7,-,N/A,,Partly Cloudy,250,2013-08-03 20:16:00
4:35 PM,77.0,53.6,44,29.76,10.0,West,9.2,-,N/A,,Scattered Clouds,260,2013-08-03 20:35:00
4:55 PM,78.8,53.6,42,29.75,10.0,West,6.9,-,N/A,,Mostly Cloudy,260,2013-08-03 20:55:00
5:15 PM,77.0,53.6,44,29.75,10.0,WSW,8.1,-,N/A,,Overcast,250,2013-08-03 21:15:00
5:35 PM,75.2,53.6,47,29.76,10.0,West,6.9,-,N/A,,Overcast,260,2013-08-03 21:35:00
5:55 PM,77.0,53.6,44,29.76,10.0,West,10.4,-,N/A,,Overcast,260,2013-08-03 21:55:00
6:15 PM,75.2,51.8,44,29.76,10.0,West,10.4,-,N/A,,Scattered Clouds,270,2013-08-03 22:15:00
6:35 PM,75.2,51.8,44,29.76,10.0,West,6.9,-,N/A,,Clear,270,2013-08-03 22:35:00
6:55 PM,73.4,53.6,50,29.76,10.0,WSW,4.6,-,N/A,,Scattered Clouds,250,2013-08-03 22:55:00
7:15 PM,73.4,53.6,50,29.76,10.0,West,5.8,-,N/A,,Scattered Clouds,260,2013-08-03 23:15:00
7:35 PM,69.8,55.4,60,29.77,10.0,Calm,Calm,-,N/A,,Clear,0,2013-08-03 23:35:00
7:55 PM,69.8,57.2,64,29.78,10.0,West,4.6,-,N/A,,Clear,270,2013-08-03 23:55:00
8:15 PM,64.4,57.2,77,29.78,10.0,Calm,Calm,-,N/A,,Scattered Clouds,0,2013-08-04 00:15:00
8:35 PM,62.6,57.2,82,29.79,10.0,Calm,Calm,-,N/A,,Clear,0,2013-08-04 00:35:00
8:55 PM,60.8,55.4,82,29.80,10.0,Calm,Calm,-,N/A,,Clear,0,2013-08-04 00:55:00
9:15 PM,60.8,55.4,82,29.80,10.0,WSW,3.5,-,N/A,,Clear,250,2013-08-04 01:15:00
9:35 PM,59.0,53.6,82,29.81,10.0,West,4.6,-,N/A,,Clear,270,2013-08-04 01:35:00
10:15 PM,57.2,53.6,88,29.81,10.0,Calm,Calm,-,N/A,,Clear,0,2013-08-04 02:15:00
10:35 PM,-9999,-9999,N/A,29.82,10.0,Calm,Calm,-,N/A,,Clear,0,2013-08-04 02:35:00
10:55 PM,55.4,51.8,88,29.82,10.0,WNW,5.8,-,N/A,,Partly Cloudy,290,2013-08-04 02:55:00
11:15 PM,60.8,53.6,77,29.82,10.0,WNW,3.5,-,N/A,,Partly Cloudy,290,2013-08-04 03:15:00
11:35 PM,57.2,51.8,82,29.81,10.0,West,3.5,-,N/A,,Clear,260,2013-08-04 03:35:00
11:55 PM,57.2,51.8,82,29.81,10.0,West,4.6,-,N/A,,Mostly Cloudy,270,2013-08-04 03:55:00